Regional Weather Roundup
Issued by NWS Austin/San Antonio, TX

Home | Current Version | Previous Version | Text Only | Print | Product List | Glossary On
Versions: 1 2 3 4 5 6 7 8 9 10 11 12 13 14 15 16 17 18 19 20 21 22 23 24 25 26 27 28 29 30 31 32 33 34 35 36 37 38 39 40 41 42 43 44 45 46 47 48 49 50
000
ASUS44 KEWX 271301
RWREWX
SOUTH TEXAS REGIONAL WEATHER ROUNDUP
NATIONAL WEATHER SERVICE AUSTIN/SAN ANTONIO TX
800 AM CDT SUN MAY 27 2018

NOTE: "FAIR" INDICATED FEW OR NO CLOUDS BELOW 12,000 FEET WITH NO
SIGNIFICANT WEATHER AND/OR OBSTRUCTIONS TO VISIBILITY.

* - THESE STATIONS ARE NOT NWS OR FAA STATIONS...AND ARE NOT SUBJECT
    TO NWS AND FAA QUALITY CONTROL.

TXZ171-172-183>190-271400-
TEXAS HILL COUNTRY AND EDWARDS PLATEAU

CITY           SKY/WX    TMP DP  RH WIND       PRES   REMARKS
JUNCTION       SUNNY     76  63  64 E5        29.85R
*LLANO         SUNNY     77  66  69 CALM      29.86R
BURNET         SUNNY     76  64  66 SE3       29.86R
*HORSESHOE BAY SUNNY     76  64  67 MISG      29.84R
*KERRVILLE     SUNNY     72  65  80 CALM      29.85S
*FREDERICKSBRG SUNNY     72  63  73 SW5       29.86R
*ROCKSPRINGS   SUNNY     73  66  78 S13       29.91R
*BOERNE STAGE  SUNNY     72  68  88 CALM      29.86R
*CASTROVILLE   PTSUNNY   73  70  92 CALM      29.84R
HONDO          SUNNY     75  71  87 NE3       29.83R
*UVALDE        SUNNY     72  67  84 E6        29.82R
DEL RIO        SUNNY     77  69  76 E7        29.78R
LAUGHLIN AFB   MOSUNNY   76  68  76 SE9       29.79R
CARRIZO SPRGS  SUNNY     77  68  73 E5        29.77S
*EAGLE PASS    SUNNY     77  68  73 E5        29.78S
*FAITH RANCH   SUNNY     77  68  73 SE6       29.78R
$$

TXZ173-191>194-202-209-217>225-228-271400-
CENTRAL AND SOUTH CENTRAL TEXAS

CITY           SKY/WX    TMP DP  RH WIND       PRES   REMARKS
GEORGETOWN     SUNNY     75  69  81 S7        29.86R
AUSTIN/BERGSTM MOSUNNY   75  71  87 SE5       29.83R
AUSTIN/MABRY   MOSUNNY   75  69  81 VRB3      29.85R
*AUSTIN/EXEC     N/A    N/A N/A N/A MISG        N/A
*LAGO VISTA    SUNNY     77  67  71 SE3       29.86R
SAN MARCOS     SUNNY     75  72  90 SE5       29.84R
NEW BRAUNFELS  MOSUNNY   74  71  91 S3        29.82S
RANDOLPH AFB   CLOUDY    74  73  96 S6        29.84R
PT SAN ANTONIO CLOUDY    75  73  93 SE7       29.81R
SAN ANTONIO    PTSUNNY   76  71  85 SE7       29.84R
STINSON FIELD  CLOUDY    77  74  90 SE5       29.81R
*LA GRANGE     PTSUNNY   77  75  93 CALM      29.81S
*GIDDINGS      MOSUNNY   71  70  94 S3        29.85R
*GONZALES      MOSUNNY   77  76  98 CALM      29.82R
$$

TXZ163>164-176>182-195>201-210>213-226-227-235-271400-
SOUTHEAST TEXAS

CITY           SKY/WX    TMP DP  RH WIND       PRES   REMARKS
COLLEGE STN    SUNNY     76  72  87 SW5       29.83R
*BRYAN         SUNNY     75  75 100 SW6       29.85R
*CALDWELL      PTSUNNY   76  73  89 SW6       29.84S
*CROCKETT      LGT RAIN  72  68  88 CALM      29.88R
*BRENHAM       CLOUDY    74  72  91 CALM      29.84R
HUNTSVILLE     PTSUNNY   75  68  78 VRB3      29.84R
CONROE         MOSUNNY   72  70  93 CALM      29.84R
HOUSTON BUSH   FAIR      73  72  96 VRB3      29.83R
HOUSTON HOBBY  FAIR      75  73  93 CALM      29.82R
*HOUSTON SW AP FAIR      73  71  92 CALM      29.83R
PEARLAND       FAIR      75  73  93 CALM      29.83R
HOUSTON HOOKS  PTSUNNY   74  71  91 CALM      29.83R
ELLINGTON FLD  MOSUNNY   75  73  94 CALM      29.84R
SUGAR LAND     FAIR      78  72  81 CALM      29.82R
*HOUSTON EXEC    N/A     75  70  83 CALM      29.84R
*CLEVELAND MUN FAIR      69  68  97 CALM      29.85R
*WHARTON       MOSUNNY   73  71  96 CALM      29.83R
*COLUMBUS      CLOUDY    76  74  95 CALM      29.84R
*EAGLE LAKE    CLOUDY    74  72  94 CALM      29.83R
$$

TXZ214>216-236>238-271400-
THE UPPER TEXAS COAST

CITY           SKY/WX    TMP DP  RH WIND       PRES   REMARKS
*ORANGE        PTSUNNY   74  74 100 CALM      29.85R FOG
PORT ARTHUR    FAIR      78  74  87 CALM      29.82R
GALVESTON      FAIR      80  77  90 CALM      29.82R
ANGLETON       FAIR      77  73  87 CALM      29.81S
*BAY CITY      MOSUNNY   74  74  99 CALM      29.81S
PALACIOS       MOSUNNY   82  75  79 S9        29.81R
$$

TXZ229>234-239>247-271400-
TEXAS COASTAL BEND AND RIO GRANDE PLAINS

CITY           SKY/WX    TMP DP  RH WIND       PRES   REMARKS
VICTORIA       MOSUNNY   75  73  93 CALM      29.81R FOG
*BEEVILLE      PTSUNNY   75  74  98 SE6       29.80S
ROCKPORT       SUNNY     80  73  79 S5        29.79R
*PORT ARANSAS    N/A    N/A N/A N/A MISG        N/A
*PORT LAVACA   MOSUNNY   75  73  94 CALM      29.81R
*INGLESIDE     MOSUNNY   82  74  77 SW8       29.79R
CORPUS CHRISTI MOSUNNY   76  76 100 CALM      29.80R
CORPUS NAS     SUNNY     81  76  84 SW7       29.79R
*ROBSTOWN      SUNNY     76  74  94 S6        29.81R
ALICE          CLOUDY    75  73  93 S5        29.80R
KINGSVILLE NAS MOSUNNY   77  74  90 S5        29.79R
COTULLA        SUNNY     76  71  85 E7        29.79R
LAREDO         SUNNY     78  71  79 S10       29.77R
$$

TXZ248>255-271400-
DEEP SOUTH TEXAS

CITY           SKY/WX    TMP DP  RH WIND       PRES   REMARKS
BROWNSVILLE    FAIR      79  76  90 S7        29.79S
PORT ISABEL    FAIR      81  73  76 S8        29.78R
*SOUTH PADRE   NOT AVBL
HARLINGEN      MOSUNNY   76  76 100 S6        29.78R
*HEBBRONVILLE  SUNNY     72  70  94 S8        29.79S
MCALLEN        SUNNY     78  76  93 SE7       29.79R
*WESLACO       NOT AVBL
FALFURRIAS     MOSUNNY   75  72  90 S6        29.78S
EDINBURG       FAIR      77  75  91 S6        29.79R
*ZAPATA        NOT AVBL
$$

TXZ213>215-236>238-242>244-246-247-251-254-255-271400-
CMAN STATIONS

STATION/POSITION TIME  TEMP    WIND        PRES    WAVE
                       AIR SEA DIR/SP/G            HT/PER
                 (UTC) (F)     (DEG/KT/KT) (MB)    (FT/S)
SABINE PASS      1230   79 87  300/  2/  3 1011.4
SEA RIM ST PARK  1200   76     340/  3/  3 1009.9
NORTH JETTY/GLS  1230   81 82  210/  4/  5 1009.1
EAGLE POINT      1230   77 85  290/  3/  4 1009.4
MORGANS POINT    1230   77 83  300/  2/  3 1009.7
PORT O`CONNOR    1230   80 85  190/  5/  8 1008.9
PORT ARANSAS     1200   80 83  170/ 13/ 14 1008.3
MALAQUITE BEACH  1230   81 84  160/ 11/ 12 1008.1
BAFFIN BAY       1230   80 82  150/  8/ 12 1008.8
PORT ISABEL      1230   79 84  190/  4/  7 1008.6
$$



USA.gov is the U.S. government's official web portal to all federal, state and local government web resources and services.